www.pogodaiklimat.ru

Погода и климат >> Архив погоды >> Аргентина >> Санта-Фе


ПОГОДА в Санта-Фе

  • Прогноз погоды в Санта-Фе
  • Монитор погоды в Санта-Фе

АРХИВ ПОГОДЫ в Санта-Фе

Время (UTC), дата Ветер
(напр.,м/с)
 
Видим.   Явления Облачность Т
(С)
Тd
(С)
f
(%)
Тe
(С)
Тes
(С)
Комфортность P
(гПа)
Po
(гПа)
Тmin
(С)
Tmax
(С)
R
(мм)
R24
(мм)
S
(см)
00 12.06 В 2 12 км 6/0
[Ac As]
+18.9 +17.6 92 +21 +21 комфорт 1009.4 1007.3 +17.5 +22.2
03 12.06 СВ 3 12 км 8/0 2000 м
[Ac As]
+19.4 +17.8 90 +22 +22 комфорт 1009.9 1007.8
06 12.06 В 3 12 км 8/0
[Ac As]
+19.1 +17.6 91 +21 +21 комфорт 1008.6 1006.5
09 12.06 СВ 4 12 км 9/0
[Ac As]
+18.6 +17.6 94 +19 +19 1008.7 1006.6
12 12.06 СВ 3 7000 м дымка 3/0
[Ac trans]
+19.1 +19 +19 1009.2 1007.0 +17.1 +19.5
15 12.06 СЗ 4 7000 м дымка 10/10 300 м
[St]
+23.2 +20.0 82 +30 +30 очень
душно
1010.0 1007.8
18 12.06 Ю 4 1000 м морось туман 10/10 90 м
[St]
+20.1 +19.5 96 +24 +24 комфорт 1009.2 1007.0 0.0
21 12.06 Ю 2 8000 м дымка ясно +19.6 +18.8 95 +23 +23 комфорт 1008.8 1006.6
00 13.06 Ю 2 8000 м дымка 10/10 900 м
[Sc]
+19.4 +18.6 95 +22 +22 комфорт 1010.5 1008.4 +18.5 +23.5 0.0
03 13.06 Ю 2 5000 м дымка 10/10 750 м
[Frnb]
+18.9 +18.1 95 +21 +21 комфорт 1011.0 1008.9
06 13.06 Ю 2 3000 м слаб. дождь туман 10/8 60 м
[St As op]
+18.9 +18.6 98 +21 +21 комфорт 1009.5 1009.4
09 13.06 Ю 2 2000 м дымка {дождь} 9/9 90 м
[St]
+18.3 +18.0 98 +19 +19 1007.9 1005.8
12 13.06 Ю 1 1200 м в посл. час туман {дождь} туман 10/10 120 м
[St]
+18.6 +18.4 99 +21 +21 комфорт 1008.5 1006.4 +16.6 +19.4 0.9
15 13.06 СВ 3 4000 м дымка {туман} 10/10 180 м
[St]
+22.4 +21.0 92 +29 +29 очень
душно
1008.5 1006.4
18 13.06 С 2 7000 м дымка {туман} 10/10 270 м
[St]
+23.1 +21.3 90 +31 +31 очень
душно
1006.7 1004.6
21 13.06 З 2 12 км 10/10 1050 м
[Sc]
+22.6 +21.4 93 +30 +30 очень
душно
1007.1 1005.0
00 14.06 З 4 7000 м дымка 10/10 210 м
[St]
+20.9 +20.1 95 +26 +26 душно 1009.5 1007.4 +18.6 +23.7
03 14.06 ЮЗ 6 12 км 10/10 180 м
[St]
+17.7 +16.7 94 +17 +17 1012.2 1010.1
06 14.06 ЮЗ 7 12 км 10/10 150 м
[St]
+16.5 +15.7 95 +15 +15 1013.2 1011.0
09 14.06 Ю 6 12 км 10/10 240 м
[St]
+16.1 +14.7 91 +15 +15 1014.0 1012.0
12 14.06 ЮЗ 5 8000 м дымка 10/10 180 м
[St]
+14.6 +13.7 94 +13 +13 1016.1 1014.0 +14.6 +20.9
15 14.06 ЮЗ 6 12 км 10/10 360 м
[St]
+15.2 +12.3 83 +14 +14 1017.3 1015.2
18 14.06 Ю 5 12 км 10/10 360 м
[St]
+15.1 +12.2 83 +14 +14 1015.5 1013.3
21 14.06 Ю 4 12 км 10/10 400 м
[St]
+15.0 +12.3 84 +14 +14 1015.9 1013.7
00 15.06 Ю 6 12 км 10/10 300 м
[St]
+14.1 +12.1 88 +12 +12 1016.1 1013.8 +14.1 +15.7
03 15.06 Ю 5 12 км 10/10 420 м
[St]
+14.5 +12.5 88 +13 +13 1016.6 1014.4
06 15.06 Ю 5 6000 м слаб. дождь туман 10/5 90 м
[St As op]
+14.1 +13.6 97 +12 +12 1014.7 1012.5 3
09 15.06 Ю 4 6000 м слаб. дождь туман 10/5 90 м
[St As op]
+14.5 +13.8 96 +13 +13 1013.8 1011.6
12 15.06 Ю 6 3700 м слаб. морось {дождь} туман 10/10 30 м
[St]
+14.4 +13.3 93 +12 +12 1014.8 1012.6 +13.2 +14.8 5
15 15.06 Ю 7 12 км в посл. час морось 10/10 300 м
[St]
+15.5 +14.1 91 +14 +14 1015.7 1013.6
18 15.06 Ю 8 5000 м слаб. морось 10/10 240 м
[St]
+13.9 +13.2 96 +11 +11 1014.3 1012.1 2
21 15.06 Ю 4 7000 м слаб. морось 10/10 60 м
[St]
+13.5 +12.6 94 +12 +12 1015.7 1013.6
00 16.06 Ю 7 6000 м слаб. морось 10/10 60 м
[St]
+13.7 +12.2 91 +11 +11 1016.6 1014.4 +13.2 +15.7 2
03 16.06 Ю 4 6000 м гроза, ливневой дождь 10/5 210 м
[Cb cap As op]
+13.4 +12.1 92 +12 +12 1017.2 1015.0
06 16.06 З 5 9000 м слаб. морось {гроза, дождь} 10/10 90 м
[St]
+12.0 +10.7 92 +9 +9 1016.9 1014.6 5
09 16.06 З 5 5000 м слаб. морось 10/10 30 м
[St]
+11.2 +10.2 94 +8 +8 1017.4 1015.2
12 16.06 З 5 12 км гроза без осадков {морось} 10/10 150 м
[Cb cap]
+11.2 +10.8 97 +8 +8 1019.5 1017.3 +10.5 +14.6 10
15 16.06 З 4 12 км в посл. час гроза 10/10 150 м
[St]
+11.3 +9.9 91 +9 +9 1021.3 1019.2
18 16.06 З 5 7000 м слаб. морось {гроза} 10/10 90 м
[St]
+12.1 +11.0 93 +10 +10 1019.8 1017.6 4
21 16.06 З 3 12 км {морось} 10/10 300 м
[Sc]
+11.6 +10.1 91 +10 +10 1020.2 1018.0
00 17.06 З 3 12 км {морось} 10/10 240 м
[St]
+11.0 +9.8 92 +9 +9 1021.8 1019.6 +10.9 +12.5
03 17.06 З 2 12 км 10/10 180 м
[St]
+10.4 +9.4 94 +9 +9 1022.5 1020.4
06 17.06 З 1 12 км 10/10 180 м
[St]
+10.1 +9.1 94 +9 +9 1021.5 1019.3
09 17.06 З 2 12 км 10/10 240 м
[St]
+10.1 +8.7 91 +9 +9 1020.4 1018.2
12 17.06 З 2 4000 м гроза, ливневой дождь 10/10 180 м
[Cb cap]
+10.1 +9.7 97 +8 +8 1020.9 1018.8 +9.6 +11.0 0.6
15 17.06 С 2 5000 м в посл. час гроза {дождь} туман 10/9 240 м
[St As op]
+10.2 +9.8 97 +9 +9 1020.7 1018.5
18 17.06 С 1 12 км {гроза, дождь} 10/10 180 м
[St]
+10.9 +9.7 92 +10 +10 1017.2 1015.0 8
21 17.06 З 1 12 км 10/10 180 м
[St]
+10.5 +9.3 92 +10 +10 1016.1 1013.8
00 18.06 З 3 5000 м слаб. дождь 10/8 210 м
[St As op]
+10.7 +10.3 97 +9 +9 1016.4 1014.2 +9.8 +11.4 1
03 18.06 З 3 7000 м в посл. час дождь {морось} 10/10 150 м
[St]
+10.4 +10.0 97 +8 +8 1016.2 1014.0
06 18.06 З 2 8000 м слаб. морось {дождь} 10/10 150 м
[St]
+10.2 +9.8 97 +9 +9 1014.9 1012.8 5
09 18.06 З 4 6000 м морось 10/10 150 м
[St]
+10.3 +9.9 97 +8 +8 1015.3 1013.0
12 18.06 СЗ 3 12 км {морось} 10/10 900 м
[Sc]
+10.8 +10.0 95 +9 +9 1017.4 1015.2 +9.9 +10.8 1
15 18.06 З 5 12 км ясно +14.4 +10.0 75 +13 +17 1017.6 1015.4
18 18.06 ЮЗ 5 12 км ясно +17.1 +5.9 48 +16 +19 1015.6 1013.4
21 18.06 З 3 12 км ясно +14.9 +6.8 58 +14 +14 1015.5 1013.3

 

Местоположение метеостанции Санта-Фе (Аргентина): широта -31.70 долгота -60.81 высота над уровнем моря 18 м.

В архиве по умолчанию представлена погода в Санта-Фе за последнюю неделю. Архивные данные за месяц целиком и за предыдущие месяцы, начиная с января 2011 года, Вы можете получить, выбрав интересующий диапазон дат из раскрывающегося списка и нажав кнопку "Ввод!".


*Определитесь, кто Вы:
робот инопланетянин человек

Внимание! Время в таблицах - всемирное. Для получения местного времени необходимо прибавить поправку, которая равна -3 ч.

Смотрите также архив погоды в соседних городах и на ближайших метеорологических станциях:

Погода в Паране (Аргентина) (32 км)
Погода в Росарио (Аргентина) (135 км)
Погода в Маркос Хуарес (Аргентина) (168 км)
Погода в Сересе (Аргентина) (230 км)
Погода в Гуалегуайчу (Аргентина) (252 км)
Погода в Конкордии (Аргентина) (269 км)
Погода в Пайсанду (Уругвай) (271 км)
Погода в Сальто (Уругвай) (273 км)
Погода в Пиларе (Аргентина) (291 км)
Погода в Реконкисте (Аргентина) (300 км)

Пояснения к столбцам:

Ветер - указаны скорость ветра в м/с - средняя за 10 мин, порывы в срок и между сроками (в фигурных скобках) и направление, откуда дует ветер: С - северный, СВ - северо-восточный, В - восточный, ЮВ - юго-восточный, Ю - южный, ЮЗ - юго-западный, З - западный, СЗ - северо-западный.
Видимость - горизонтальная дальность видимости в метрах или километрах. При видимости от 1 до 10 км при отсутствии осадков обычно наблюдается дымка, при ухудшении видимости до 1 км и менее - туман. В сухую погоду видимость может ухудшаться дымом, пылью или мглою.
Явления - указаны атмосферные явления, наблюдавшиеся в срок или в последний час перед сроком; фигурными скобками обозначены явления, наблюдавшиеся между сроками (за 1-3 часа до срока); квадратными скобками обозначены град или гололедные отложения с указанием их диаметра в мм.
Облачность - указаны через наклонную черту общая и нижняя облачность в баллах и высота нижней границы облаков в метрах; квадратными скобками обозначены формы облаков: Ci - перистые, Cs - перисто-слоистые, Cc - перисто-кучевые, Ac - высококучевые, As - высокослоистые, Sc - слоисто-кучевые, Ns - слоисто-дождевые, Cu - кучевые, Cb - кучево-дождевые. Подробнее классификацию облаков см. в Атласе облаков (PDF).
T - Температура воздуха - температура, измеренная на высоте 2 м над землей.
Td - Температура точки росы - температура, при понижении до которой содержащийся в воздухе водяной пар достигнет насыщения.
f - Относительная влажность воздуха - влажноcть воздуха, измеренная на высоте 2 м над землей.
Te - Эффективная температура - температура, которую ощущает одетый по сезону человек в тени. Характеристика душности погоды. При расчете учитывается влияние влажности воздуха и скорости ветра на теплоощущения человека.
Tes - Эффективная температура на солнце - температура, которую ощущает человек, с поправкой на солнечный нагрев. Характеристика знойности погоды. Зависит от высоты солнца над горизонтом, облачности и скорости ветра. Ночью, в пасмурную погоду, а также при ветре 12 м/с и более поправка равна нулю.
P - Атмосферное давление - приведенное к уровню моря атмосферное давление.
Po - Атмосферное давление - измеренное на уровне метеостанции атмосферное давление.
Tmin - Минимальная температура - минимум температуры воздуха на высоте 2 м над землей.
Tmax - Максимальная температура - максимум температуры воздуха на высоте 2 м над землей.
R - Количество осадков - Количество выпавших осадков за период времени, мм. При наведении курсора мыши на число - период времени, за который выпало указанное количество осадков.
R24 - Количество осадков - Количество выпавших осадков за 24 часа, мм.
S - Снежный покров - Высота снежного покрова, см. При наведении курсора мыши на число - состояние снежного покрова и степень покрытия местности в баллах.